Overview Statistics Trail Chart Weather Telemetry Raw packets
 

This is the latest recevied weather packets stored in our database for station/object MB7UKB-10. If no packets are shown the sender has not sent any weather packets the latest 10 day(s).

<< 7 8 9 10 11 12 13 >>
Time Temp. Humidity Pressure Rain* Wind** Luminosity Snow
1788289235 18.33° C 64% 1019.8 hPa 0 mm - - -
1788287434 20° C 54% 1019.6 hPa 0 mm - - -
1788285634 20.56° C 50% 1019.6 hPa 0 mm - - -
1788283834 21.11° C 48% 1019.6 hPa 0 mm - - -
1788282033 22.22° C 44% 1019.2 hPa 0 mm - - -
1788280233 21.67° C 47% 1019.3 hPa 0 mm - - -
1788278434 21.67° C 44% 1019.8 hPa 0 mm - - -
1788274834 22.22° C 43% 1019.9 hPa 0 mm - - -
1788273034 22.22° C 44% 1019.8 hPa 0 mm - - -
1788271233 21.67° C 45% 1020.1 hPa 0 mm - - -
1788269433 21.11° C 48% 1020.2 hPa 0 mm - - -
1788267633 20.56° C 51% 1020.5 hPa 0 mm - - -
1788265833 21.11° C 49% 1020.4 hPa 0 mm - - -
1788264033 21.67° C 50% 1020.6 hPa 0 mm - - -
1788262233 21.11° C 51% 1020.5 hPa 0 mm - - -
1788258640 20° C 55% 1020.7 hPa 0 mm - - -
1788256833 20.56° C 54% 1020.9 hPa 0 mm - - -
1788255034 19.44° C 56% 1021.2 hPa 0 mm - - -
1788253234 17.78° C 65% 1021.3 hPa 0 mm - - -
1788251433 16.67° C 69% 1021.2 hPa 0 mm - - -
1788249633 15° C 77% 1020.9 hPa 0 mm - - -
1788246034 13.89° C 82% 1020.7 hPa 0 mm - - -
1788244234 11.11° C 91% 1020.7 hPa 0 mm - - -
1788242434 11.11° C 92% 1020.3 hPa 0 mm - - -
1788240634 10.56° C 94% 1020.3 hPa 0 mm - - -

* Rain latest hour (hover to see other rain measurements)
** Current wind speed in m/s (hover to see current wind gust speed)